Tracking 19717 objects as of 24-Jun-2019
HD Live streaming from Space Station
objects crossing your sky now

COSMOS 1974

Track COSMOS 1974 now!
COSMOS 1974 is classified as:


NORAD ID: 19554
Int'l Code: 1988-092A
Perigee: 6,365.9 km
Apogee: 33,982.4 km
Inclination: 69.9 °
Period: 717.4 minutes
Semi major axis: 26545 km
RCS: 16.1296 m2 (large)
Launch date: October 3, 1988
Source: Commonwealth of Independent States (former USSR) (CIS)
Launch site: PLESETSK MISSILE AND SPACE COMPLEX (PKMTR)
aabbcc
Your satellite tracking list
Your tracking list is empty




NASA's NSSDC Master Catalog

Two Line Element Set (TLE):
1 19554U 88092A   19174.65192017 -.00000657  00000-0  00000+0 0  9992
2 19554  69.9142 282.0916 5201808 131.9629 283.0697  2.00736038225025
Source of the keplerian elements: AFSPC